| time (UTC) | temp F | wind direction | speed MPH | gust MPH | rain 1hr in | rain 24hr in | rain mn in | humidity % | barometer mb |
| 20260502162352 | 59 | 60 | 1.0 | 3.0 | 0.00 | 0.02 | 0.02 | 57 | 1016.5 |
| 20260502161849 | 59 | 324 | 0.0 | 3.0 | 0.00 | 0.02 | 0.02 | 60 | 1016.8 |
| 20260502161345 | 59 | 29 | 0.0 | 3.0 | 0.00 | 0.02 | 0.02 | 64 | 1016.9 |
| 20260502160843 | 57 | 307 | 3.0 | 4.0 | 0.00 | 0.02 | 0.02 | 61 | 1017.2 |
| 20260502160342 | 59 | 69 | 1.0 | 3.0 | 0.00 | 0.02 | 0.02 | 63 | 1017.0 |
| 20260502152322 | 56 | 325 | 0.0 | 1.0 | 0.00 | 0.02 | 0.02 | 64 | 1017.4 |
| 20260502151820 | 55 | 23 | 1.0 | 2.0 | 0.00 | 0.02 | 0.02 | 65 | 1017.5 |
| 20260502151316 | 55 | 78 | 1.0 | 2.0 | 0.00 | 0.02 | 0.02 | 67 | 1017.5 |
| 20260502150814 | 55 | 90 | 0.0 | 2.0 | 0.00 | 0.02 | 0.02 | 66 | 1017.6 |
| 20260502150310 | 55 | 81 | 0.0 | 2.0 | 0.00 | 0.02 | 0.02 | 64 | 1017.5 |
| 20260502130659 | 56 | 352 | 0.0 | 3.0 | 0.00 | 0.02 | 0.02 | 72 | 1016.8 |
| 20260502130157 | 56 | 352 | 2.0 | 3.0 | 0.00 | 0.02 | 0.02 | 70 | 1016.6 |
| 20260502123642 | 55 | 98 | 0.0 | 3.0 | 0.00 | 0.02 | 0.02 | 75 | 1016.4 |
| 20260502123139 | 55 | 29 | 0.0 | 3.0 | 0.00 | 0.02 | 0.02 | 73 | 1016.0 |
| 20260502122635 | 55 | 8 | 0.0 | 5.0 | 0.00 | 0.02 | 0.02 | 73 | 1016.3 |
| 20260502122132 | 55 | 341 | 0.0 | 3.0 | 0.00 | 0.02 | 0.02 | 72 | 1016.7 |
| 20260502121630 | 56 | 254 | 0.0 | 3.0 | 0.00 | 0.02 | 0.02 | 73 | 1016.5 |
| 20260502121127 | 55 | 237 | 2.0 | 6.0 | 0.00 | 0.02 | 0.02 | 74 | 1015.4 |
| 20260502120624 | 55 | 5 | 2.0 | 3.0 | 0.00 | 0.02 | 0.02 | 77 | 1015.9 |
| 20260502120121 | 55 | 270 | 3.0 | 3.0 | 0.00 | 0.02 | 0.02 | 73 | 1015.8 |
| 20260502115619 | 55 | 70 | 0.0 | 3.0 | 0.00 | 0.02 | 0.02 | 77 | 1015.4 |
| 20260502115114 | 55 | 84 | 0.0 | 2.0 | 0.00 | 0.02 | 0.02 | 75 | 1016.1 |
| 20260502114610 | 55 | 327 | 6.0 | 7.0 | 0.00 | 0.02 | 0.02 | 72 | 1016.3 |
| 20260502114108 | 55 | 352 | 0.0 | 2.0 | 0.00 | 0.02 | 0.02 | 74 | 1016.1 |
| 20260502113605 | 55 | 120 | 0.0 | 4.0 | 0.00 | 0.02 | 0.02 | 74 | 1015.7 |
| 20260502113104 | 55 | 287 | 2.0 | 3.0 | 0.00 | 0.02 | 0.02 | 77 | 1016.0 |
| 20260502112601 | 55 | 15 | 0.0 | 0.0 | 0.00 | 0.02 | 0.02 | 80 | 1016.0 |
| 20260502112058 | 55 | 305 | 0.0 | 4.0 | 0.00 | 0.02 | 0.02 | 77 | 1015.8 |
| 20260502111556 | 54 | 35 | 0.0 | 1.0 | 0.00 | 0.02 | 0.02 | 83 | 1016.0 |
| 20260502111053 | 54 | 158 | 0.0 | 3.0 | 0.00 | 0.02 | 0.02 | 83 | 1015.8 |
| 20260502110550 | 54 | 279 | 0.0 | 2.0 | 0.00 | 0.02 | 0.02 | 85 | 1015.4 |
| 20260502110048 | 54 | 319 | 2.0 | 3.0 | 0.00 | 0.02 | 0.02 | 86 | 1015.1 |
| 20260502105545 | 53 | 75 | 0.0 | 2.0 | 0.00 | 0.02 | 0.02 | 87 | 1015.3 |
| 20260502105043 | 53 | 53 | 0.0 | 4.0 | 0.00 | 0.02 | 0.02 | 89 | 1015.3 |
| 20260502104539 | 53 | 81 | 0.0 | 1.0 | 0.00 | 0.02 | 0.02 | 90 | 1015.2 |
| 20260502104037 | 54 | 0 | 0.0 | 1.0 | 0.00 | 0.02 | 0.02 | 90 | 1015.3 |
| 20260502103534 | 54 | 331 | 0.0 | 1.0 | 0.00 | 0.02 | 0.02 | 89 | 1015.3 |
| 20260502103032 | 53 | 57 | 3.0 | 3.0 | 0.00 | 0.02 | 0.02 | 90 | 1015.7 |
| 20260502102528 | 53 | 74 | 0.0 | 1.0 | 0.00 | 0.02 | 0.02 | 93 | 1015.3 |
| 20260502102026 | 53 | 23 | 1.0 | 2.0 | 0.00 | 0.02 | 0.02 | 96 | 1015.1 |
| 20260502101523 | 53 | 35 | 0.0 | 0.0 | 0.00 | 0.02 | 0.02 | 96 | 1015.3 |
| 20260502101022 | 53 | 35 | 0.0 | 1.0 | 0.00 | 0.02 | 0.02 | 97 | 1015.1 |
| 20260502100520 | 53 | 63 | 0.0 | 2.0 | 0.00 | 0.02 | 0.02 | 97 | 1015.3 |
| 20260502091454 | 54 | 60 | 0.0 | 2.0 | 0.02 | 0.01 | 0.01 | 97 | 1016.3 |
| 20260502090952 | 54 | 81 | 0.0 | 0.0 | 0.02 | 0.01 | 0.01 | 97 | 1016.4 |
| 20260502090448 | 54 | 81 | 0.0 | 0.0 | 0.00 | 0.01 | 0.01 | 97 | 1016.2 |
| 20260502071343 | 53 | 81 | 0.0 | 0.0 | 0.00 | 0.00 | 0.00 | 98 | 1014.7 |
| 20260502070841 | 53 | 81 | 0.0 | 0.0 | 0.00 | 0.00 | 0.00 | 98 | 1014.7 |
| 20260502070338 | 53 | 81 | 0.0 | 0.0 | 0.00 | 0.00 | 0.00 | 98 | 1014.6 |
| 20260502065837 | 53 | 81 | 0.0 | 1.0 | 0.00 | 0.00 | 0.00 | 98 | 1014.8 |
| 20260502065335 | 53 | 14 | 0.0 | 0.0 | 0.00 | 0.00 | 0.00 | 98 | 1014.7 |
| 20260502064833 | 53 | 14 | 0.0 | 0.0 | 0.00 | 0.00 | 0.00 | 98 | 1014.7 |
| 20260502064331 | 53 | 14 | 0.0 | 0.0 | 0.00 | 0.00 | 0.00 | 98 | 1014.9 |
| 20260502063827 | 53 | 14 | 0.0 | 0.0 | 0.00 | 0.00 | 0.00 | 98 | 1014.7 |
| 20260502063325 | 53 | 14 | 0.0 | 0.0 | 0.00 | 0.00 | 0.00 | 98 | 1014.8 |
| 20260502062822 | 53 | 66 | 0.0 | 1.0 | 0.00 | 0.00 | 0.00 | 98 | 1014.8 |
| 20260502062320 | 53 | 0 | 0.0 | 0.0 | 0.00 | 0.00 | 0.00 | 97 | 1014.8 |
| 20260502061819 | 53 | 81 | 0.0 | 0.0 | 0.00 | 0.00 | 0.00 | 97 | 1014.9 |
| 20260502061316 | 53 | 81 | 0.0 | 2.0 | 0.00 | 0.00 | 0.00 | 97 | 1015.0 |
| 20260502060811 | 53 | 0 | 0.0 | 0.0 | 0.00 | 0.00 | 0.00 | 96 | 1015.2 |
| 20260502060307 | 54 | 60 | 0.0 | 1.0 | 0.00 | 0.00 | 0.00 | 96 | 1015.2 |
| 20260502055805 | 53 | 0 | 0.0 | 0.0 | 0.00 | 0.00 | 0.00 | 96 | 1015.1 |
| 20260502055305 | 53 | 0 | 0.0 | 0.0 | 0.00 | 0.00 | 0.00 | 96 | 1015.1 |
| 20260502054802 | 53 | 0 | 0.0 | 1.0 | 0.00 | 0.00 | 0.00 | 96 | 1015.2 |
| 20260502054259 | 53 | 81 | 0.0 | 0.0 | 0.00 | 0.00 | 0.00 | 96 | 1015.1 |
| 20260502053756 | 53 | 81 | 0.0 | 0.0 | 0.00 | 0.00 | 0.00 | 96 | 1015.3 |
| 20260502053253 | 53 | 81 | 0.0 | 0.0 | 0.00 | 0.00 | 0.00 | 96 | 1015.4 |
| 20260502052751 | 53 | 81 | 0.0 | 0.0 | 0.00 | 0.00 | 0.00 | 96 | 1015.1 |
| 20260502052249 | 53 | 69 | 0.0 | 3.0 | 0.00 | 0.00 | 0.00 | 96 | 1015.3 |
| 20260502051746 | 53 | 270 | 0.0 | 0.0 | 0.00 | 0.00 | 0.00 | 95 | 1015.3 |
| 20260502051245 | 53 | 270 | 0.0 | 0.0 | 0.00 | 0.00 | 0.00 | 95 | 1015.5 |
| 20260502050741 | 53 | 270 | 0.0 | 0.0 | 0.00 | 0.00 | 0.00 | 95 | 1015.3 |
| 20260502050236 | 53 | 270 | 0.0 | 0.0 | 0.00 | 0.00 | 0.00 | 95 | 1015.5 |
| 20260502045734 | 53 | 270 | 0.0 | 0.0 | 0.00 | 0.00 | 0.00 | 95 | 1015.7 |
| 20260502045231 | 53 | 270 | 0.0 | 0.0 | 0.00 | 0.00 | 0.00 | 95 | 1015.5 |
| 20260502044728 | 53 | 270 | 0.0 | 0.0 | 0.00 | 0.00 | 0.00 | 95 | 1015.5 |
| 20260502044224 | 53 | 270 | 0.0 | 0.0 | 0.00 | 0.00 | 0.00 | 96 | 1015.9 |
| 20260502043722 | 53 | 270 | 0.0 | 0.0 | 0.00 | 0.00 | 0.00 | 96 | 1015.9 |
| 20260502043219 | 53 | 270 | 0.0 | 0.0 | 0.00 | 0.00 | 0.00 | 96 | 1015.9 |
| 20260502042718 | 53 | 270 | 0.0 | 0.0 | 0.00 | 0.00 | 0.00 | 95 | 1016.0 |
| 20260502042216 | 53 | 270 | 0.0 | 0.0 | 0.00 | 0.00 | 0.00 | 95 | 1015.4 |
| 20260502041713 | 53 | 270 | 0.0 | 0.0 | 0.00 | 0.00 | 0.00 | 95 | 1015.7 |
| 20260502041210 | 53 | 270 | 0.0 | 0.0 | 0.00 | 0.00 | 0.00 | 95 | 1015.5 |
| 20260502040707 | 53 | 270 | 0.0 | 0.0 | 0.00 | 0.00 | 0.00 | 95 | 1015.8 |
| 20260502040204 | 53 | 90 | 0.0 | 0.0 | 0.00 | 0.00 | 0.00 | 95 | 1016.0 |
| 20260502035700 | 54 | 90 | 0.0 | 0.0 | 0.00 | 0.00 | 0.00 | 95 | 1016.0 |
| 20260502035157 | 54 | 90 | 0.0 | 0.0 | 0.00 | 0.00 | 0.00 | 95 | 1015.8 |
| 20260502034655 | 54 | 90 | 0.0 | 0.0 | 0.00 | 0.00 | 0.00 | 94 | 1015.7 |
| 20260502034153 | 54 | 90 | 0.0 | 0.0 | 0.00 | 0.00 | 0.00 | 93 | 1015.8 |
| 20260502033651 | 54 | 90 | 0.0 | 0.0 | 0.00 | 0.00 | 0.00 | 93 | 1015.9 |
| 20260502033148 | 55 | 90 | 0.0 | 0.0 | 0.00 | 0.00 | 0.00 | 93 | 1015.8 |
| 20260502032645 | 55 | 90 | 0.0 | 0.0 | 0.00 | 0.00 | 0.00 | 92 | 1015.8 |
| 20260502032141 | 56 | 49 | 0.0 | 2.0 | 0.00 | 0.00 | 0.00 | 90 | 1016.1 |
| 20260502031639 | 55 | 0 | 0.0 | 0.0 | 0.00 | 0.00 | 0.00 | 88 | 1016.1 |
| 20260502031136 | 55 | 0 | 0.0 | 0.0 | 0.00 | 0.00 | 0.00 | 87 | 1016.2 |
| 20260502030635 | 55 | 0 | 0.0 | 0.0 | 0.00 | 0.00 | 0.00 | 87 | 1016.3 |
| 20260502030133 | 56 | 0 | 0.0 | 0.0 | 0.00 | 0.00 | 0.00 | 87 | 1016.3 |
| 20260502025629 | 55 | 0 | 0.0 | 0.0 | 0.00 | 0.00 | 0.00 | 86 | 1016.3 |
| 20260502025128 | 56 | 0 | 0.0 | 0.0 | 0.00 | 0.00 | 0.00 | 86 | 1016.1 |
| 20260502024625 | 56 | 0 | 0.0 | 0.0 | 0.00 | 0.00 | 0.00 | 85 | 1016.1 |
| 20260502024123 | 56 | 0 | 0.0 | 0.0 | 0.00 | 0.00 | 0.00 | 86 | 1016.2 |
| 20260502023621 | 56 | 0 | 0.0 | 0.0 | 0.00 | 0.00 | 0.00 | 85 | 1016.2 |
| 20260502023118 | 56 | 0 | 0.0 | 0.0 | 0.00 | 0.00 | 0.00 | 85 | 1016.2 |
| 20260502022614 | 56 | 0 | 0.0 | 0.0 | 0.00 | 0.00 | 0.00 | 85 | 1016.1 |
| 20260502022112 | 56 | 0 | 0.0 | 0.0 | 0.00 | 0.00 | 0.00 | 84 | 1016.1 |
| 20260502021609 | 56 | 0 | 0.0 | 0.0 | 0.00 | 0.00 | 0.00 | 84 | 1016.2 |
| 20260502021106 | 56 | 0 | 0.0 | 0.0 | 0.00 | 0.00 | 0.00 | 85 | 1016.6 |
| 20260502020604 | 56 | 0 | 0.0 | 0.0 | 0.00 | 0.00 | 0.00 | 85 | 1016.2 |
| 20260502020100 | 56 | 0 | 0.0 | 0.0 | 0.00 | 0.00 | 0.00 | 85 | 1016.1 |
| 20260502015558 | 56 | 0 | 0.0 | 0.0 | 0.00 | 0.00 | 0.00 | 85 | 1016.1 |
| 20260502015054 | 56 | 0 | 0.0 | 0.0 | 0.00 | 0.00 | 0.00 | 84 | 1016.2 |
| 20260502014551 | 56 | 0 | 0.0 | 0.0 | 0.00 | 0.00 | 0.00 | 84 | 1016.2 |
| 20260502014048 | 57 | 0 | 0.0 | 0.0 | 0.00 | 0.00 | 0.00 | 84 | 1016.1 |
| 20260502013543 | 57 | 0 | 0.0 | 0.0 | 0.00 | 0.00 | 0.00 | 83 | 1016.2 |
| 20260502013040 | 57 | 0 | 0.0 | 0.0 | 0.00 | 0.00 | 0.00 | 83 | 1016.0 |
| 20260502012538 | 57 | 0 | 0.0 | 0.0 | 0.00 | 0.00 | 0.00 | 83 | 1016.1 |
| 20260502012035 | 57 | 0 | 0.0 | 0.0 | 0.00 | 0.00 | 0.00 | 83 | 1016.1 |
| 20260502011532 | 57 | 0 | 0.0 | 0.0 | 0.00 | 0.00 | 0.00 | 83 | 1016.0 |
| 20260502011028 | 57 | 0 | 0.0 | 0.0 | 0.00 | 0.00 | 0.00 | 81 | 1015.9 |
| 20260502010526 | 57 | 0 | 0.0 | 0.0 | 0.00 | 0.00 | 0.00 | 82 | 1016.0 |
| 20260502010022 | 57 | 0 | 0.0 | 0.0 | 0.00 | 0.00 | 0.00 | 81 | 1016.1 |
| 20260502005520 | 57 | 0 | 0.0 | 0.0 | 0.00 | 0.00 | 0.00 | 80 | 1015.8 |
| 20260502005017 | 58 | 0 | 0.0 | 0.0 | 0.00 | 0.00 | 0.00 | 79 | 1015.8 |
| 20260502004513 | 58 | 0 | 0.0 | 0.0 | 0.00 | 0.00 | 0.00 | 78 | 1015.5 |
| 20260502004010 | 58 | 0 | 0.0 | 0.0 | 0.00 | 0.00 | 0.00 | 78 | 1015.5 |
| 20260502003508 | 59 | 0 | 0.0 | 0.0 | 0.00 | 0.00 | 0.00 | 77 | 1015.7 |
| 20260502003004 | 59 | 0 | 0.0 | 0.0 | 0.00 | 0.00 | 0.00 | 77 | 1015.3 |
| 20260502002501 | 59 | 0 | 0.0 | 0.0 | 0.00 | 0.00 | 0.00 | 75 | 1015.2 |
| 20260502001958 | 60 | 0 | 0.0 | 0.0 | 0.00 | 0.00 | 0.00 | 74 | 1015.1 |
| 20260502001455 | 60 | 0 | 0.0 | 0.0 | 0.00 | 0.00 | 0.00 | 75 | 1015.0 |
| 20260502000953 | 60 | 0 | 0.0 | 0.0 | 0.00 | 0.00 | 0.00 | 73 | 1014.8 |
| 20260502000454 | 60 | 0 | 0.0 | 0.0 | 0.00 | 0.00 | 0.00 | 74 | 1014.8 |
| 20260501235947 | 60 | 0 | 0.0 | 0.0 | 0.00 | 0.00 | 0.00 | 73 | 1015.1 |
| 20260501235443 | 61 | 0 | 0.0 | 0.0 | 0.00 | 0.00 | 0.00 | 72 | 1014.9 |
| 20260501234938 | 61 | 0 | 0.0 | 0.0 | 0.00 | 0.00 | 0.00 | 70 | 1014.8 |
| 20260501234435 | 62 | 0 | 0.0 | 1.0 | 0.00 | 0.00 | 0.00 | 70 | 1014.7 |
| 20260501233934 | 62 | 8 | 0.0 | 0.0 | 0.00 | 0.00 | 0.00 | 69 | 1014.6 |
| 20260501233431 | 62 | 8 | 0.0 | 0.0 | 0.00 | 0.00 | 0.00 | 68 | 1014.7 |
| 20260501232927 | 63 | 63 | 0.0 | 0.0 | 0.00 | 0.00 | 0.00 | 67 | 1014.7 |
| 20260501232424 | 63 | 63 | 0.0 | 0.0 | 0.00 | 0.00 | 0.00 | 66 | 1014.7 |
| 20260501231921 | 64 | 63 | 0.0 | 0.0 | 0.00 | 0.00 | 0.00 | 65 | 1014.7 |
| 20260501231420 | 64 | 60 | 0.0 | 0.0 | 0.00 | 0.00 | 0.00 | 64 | 1014.5 |
| 20260501230917 | 65 | 81 | 0.0 | 0.0 | 0.00 | 0.00 | 0.00 | 64 | 1014.6 |
| 20260501230416 | 65 | 81 | 0.0 | 0.0 | 0.00 | 0.00 | 0.00 | 62 | 1014.8 |
| 20260501225913 | 66 | 81 | 0.0 | 0.0 | 0.00 | 0.00 | 0.00 | 63 | 1014.9 |
| 20260501225410 | 65 | 81 | 0.0 | 1.0 | 0.00 | 0.00 | 0.00 | 62 | 1015.0 |
| 20260501224906 | 67 | 74 | 0.0 | 1.0 | 0.00 | 0.00 | 0.00 | 61 | 1014.9 |
| 20260501224404 | 67 | 289 | 0.0 | 0.0 | 0.00 | 0.00 | 0.00 | 61 | 1014.8 |
| 20260501223900 | 67 | 289 | 0.0 | 0.0 | 0.00 | 0.00 | 0.00 | 61 | 1014.9 |
| 20260501223356 | 67 | 90 | 0.0 | 0.0 | 0.00 | 0.00 | 0.00 | 62 | 1015.0 |
| 20260501222852 | 67 | 75 | 0.0 | 1.0 | 0.00 | 0.00 | 0.00 | 60 | 1014.8 |
| 20260501222350 | 66 | 297 | 1.0 | 1.0 | 0.00 | 0.00 | 0.00 | 61 | 1014.7 |
| 20260501221846 | 65 | 80 | 2.0 | 2.0 | 0.00 | 0.00 | 0.00 | 61 | 1014.7 |
| 20260501221344 | 66 | 90 | 1.0 | 1.0 | 0.00 | 0.00 | 0.00 | 60 | 1015.0 |
| 20260501220842 | 68 | 74 | 0.0 | 1.0 | 0.00 | 0.00 | 0.00 | 56 | 1014.8 |
| 20260501220339 | 71 | 340 | 0.0 | 1.0 | 0.00 | 0.00 | 0.00 | 55 | 1014.8 |
| 20260501215835 | 70 | 66 | 0.0 | 1.0 | 0.00 | 0.00 | 0.00 | 56 | 1015.0 |
| 20260501215331 | 68 | 82 | 1.0 | 1.0 | 0.00 | 0.00 | 0.00 | 57 | 1015.0 |
| 20260501214827 | 70 | 90 | 0.0 | 0.0 | 0.00 | 0.00 | 0.00 | 58 | 1014.9 |
| 20260501214322 | 68 | 90 | 0.0 | 0.0 | 0.00 | 0.00 | 0.00 | 59 | 1015.0 |
| 20260501213819 | 66 | 270 | 0.0 | 3.0 | 0.00 | 0.00 | 0.00 | 58 | 1015.1 |
| 20260501213315 | 70 | 294 | 0.0 | 1.0 | 0.00 | 0.00 | 0.00 | 55 | 1015.1 |
| 20260501212811 | 69 | 90 | 0.0 | 1.0 | 0.00 | 0.00 | 0.00 | 55 | 1015.1 |
| 20260501212308 | 72 | 279 | 0.0 | 0.0 | 0.00 | 0.00 | 0.00 | 53 | 1015.1 |
| 20260501211805 | 69 | 74 | 0.0 | 2.0 | 0.00 | 0.00 | 0.00 | 56 | 1015.1 |
| 20260501211302 | 69 | 90 | 0.0 | 2.0 | 0.00 | 0.00 | 0.00 | 54 | 1015.1 |
| 20260501210759 | 69 | 74 | 0.0 | 1.0 | 0.00 | 0.00 | 0.00 | 56 | 1015.0 |
| 20260501210256 | 71 | 270 | 0.0 | 2.0 | 0.00 | 0.00 | 0.00 | 53 | 1015.3 |
| 20260501205752 | 71 | 29 | 0.0 | 2.0 | 0.00 | 0.00 | 0.00 | 53 | 1015.3 |
| 20260501205249 | 71 | 117 | 1.0 | 1.0 | 0.00 | 0.00 | 0.00 | 54 | 1015.3 |
| 20260501204746 | 70 | 0 | 1.0 | 1.0 | 0.00 | 0.00 | 0.00 | 54 | 1015.2 |
| 20260501204243 | 72 | 279 | 0.0 | 0.0 | 0.00 | 0.00 | 0.00 | 55 | 1015.2 |
| 20260501203739 | 69 | 254 | 1.0 | 2.0 | 0.00 | 0.00 | 0.00 | 56 | 1015.3 |
| 20260501203236 | 70 | 270 | 0.0 | 1.0 | 0.00 | 0.00 | 0.00 | 57 | 1015.2 |
| 20260501202733 | 70 | 90 | 1.0 | 2.0 | 0.00 | 0.00 | 0.00 | 52 | 1015.3 |
| 20260501202230 | 69 | 259 | 0.0 | 3.0 | 0.00 | 0.00 | 0.00 | 54 | 1015.4 |
| 20260501201727 | 72 | 289 | 0.0 | 1.0 | 0.00 | 0.00 | 0.00 | 50 | 1015.5 |
| 20260501201224 | 69 | 90 | 0.0 | 2.0 | 0.00 | 0.00 | 0.00 | 51 | 1015.3 |
| 20260501200721 | 70 | 90 | 0.0 | 2.0 | 0.00 | 0.00 | 0.00 | 51 | 1015.5 |
| 20260501200218 | 70 | 81 | 0.0 | 2.0 | 0.00 | 0.00 | 0.00 | 52 | 1015.7 |
| 20260501195715 | 72 | 81 | 0.0 | 1.0 | 0.00 | 0.00 | 0.00 | 49 | 1015.7 |
| 20260501195211 | 71 | 66 | 0.0 | 1.0 | 0.00 | 0.00 | 0.00 | 51 | 1016.1 |
| 20260501194707 | 69 | 103 | 1.0 | 2.0 | 0.00 | 0.00 | 0.00 | 52 | 1016.2 |
| 20260501194202 | 66 | 266 | 3.0 | 4.0 | 0.00 | 0.00 | 0.00 | 51 | 1016.4 |
| 20260501193659 | 68 | 71 | 0.0 | 3.0 | 0.00 | 0.00 | 0.00 | 53 | 1016.4 |
| 20260501193158 | 69 | 90 | 0.0 | 2.0 | 0.00 | 0.00 | 0.00 | 52 | 1016.6 |
| 20260501192655 | 71 | 294 | 0.0 | 2.0 | 0.00 | 0.00 | 0.00 | 50 | 1016.5 |
| 20260501192152 | 73 | 111 | 0.0 | 2.0 | 0.00 | 0.00 | 0.00 | 49 | 1016.6 |
| 20260501191650 | 72 | 90 | 0.0 | 0.0 | 0.00 | 0.00 | 0.00 | 52 | 1016.7 |
| 20260501191147 | 68 | 294 | 0.0 | 3.0 | 0.00 | 0.00 | 0.00 | 51 | 1016.7 |
| 20260501190643 | 71 | 297 | 0.0 | 2.0 | 0.00 | 0.00 | 0.00 | 53 | 1017.0 |
| 20260501190138 | 69 | 71 | 1.0 | 2.0 | 0.00 | 0.00 | 0.00 | 54 | 1017.1 |
| 20260501185634 | 68 | 77 | 0.0 | 0.0 | 0.00 | 0.00 | 0.00 | 53 | 1016.9 |
| 20260501185130 | 67 | 74 | 0.0 | 0.0 | 0.00 | 0.00 | 0.00 | 54 | 1017.3 |
| 20260501184627 | 66 | 74 | 0.0 | 1.0 | 0.00 | 0.00 | 0.00 | 55 | 1017.3 |
| 20260501184121 | 67 | 286 | 0.0 | 1.0 | 0.00 | 0.00 | 0.00 | 55 | 1017.2 |
| 20260501183618 | 65 | 246 | 0.0 | 2.0 | 0.00 | 0.00 | 0.00 | 52 | 1017.1 |
| 20260501183115 | 66 | 311 | 0.0 | 2.0 | 0.00 | 0.00 | 0.00 | 53 | 1017.1 |
| 20260501182611 | 65 | 74 | 1.0 | 1.0 | 0.00 | 0.00 | 0.00 | 54 | 1017.1 |
| 20260501182108 | 65 | 90 | 0.0 | 2.0 | 0.00 | 0.00 | 0.00 | 54 | 1017.2 |
| 20260501181606 | 66 | 81 | 0.0 | 2.0 | 0.00 | 0.00 | 0.00 | 52 | 1017.2 |
| 20260501181102 | 65 | 90 | 0.0 | 2.0 | 0.00 | 0.00 | 0.00 | 54 | 1017.2 |
| 20260501180601 | 66 | 90 | 0.0 | 1.0 | 0.00 | 0.00 | 0.00 | 53 | 1017.6 |
| 20260501180056 | 68 | 84 | 0.0 | 0.0 | 0.00 | 0.00 | 0.00 | 51 | 1017.6 |
| 20260501175553 | 68 | 173 | 0.0 | 1.0 | 0.00 | 0.00 | 0.00 | 53 | 1017.5 |
| 20260501175050 | 67 | 294 | 0.0 | 2.0 | 0.00 | 0.00 | 0.00 | 52 | 1017.5 |
| 20260501174547 | 67 | 77 | 0.0 | 0.0 | 0.00 | 0.00 | 0.00 | 51 | 1017.6 |
| 20260501174045 | 66 | 74 | 0.0 | 1.0 | 0.00 | 0.00 | 0.00 | 51 | 1017.4 |
| 20260501173541 | 66 | 73 | 2.0 | 2.0 | 0.00 | 0.00 | 0.00 | 52 | 1017.6 |
| 20260501173038 | 65 | 74 | 2.0 | 3.0 | 0.00 | 0.00 | 0.00 | 50 | 1017.5 |
| 20260501172534 | 64 | 14 | 0.0 | 2.0 | 0.00 | 0.00 | 0.00 | 48 | 1017.7 |
| 20260501172030 | 65 | 346 | 2.0 | 3.0 | 0.00 | 0.00 | 0.00 | 48 | 1017.9 |
| 20260501171526 | 66 | 90 | 0.0 | 2.0 | 0.00 | 0.00 | 0.00 | 50 | 1017.9 |
| 20260501171022 | 66 | 90 | 0.0 | 2.0 | 0.00 | 0.00 | 0.00 | 48 | 1017.7 |
| 20260501170519 | 68 | 77 | 0.0 | 3.0 | 0.00 | 0.00 | 0.00 | 46 | 1017.9 |
| 20260501170017 | 69 | 240 | 0.0 | 2.0 | 0.00 | 0.00 | 0.00 | 54 | 1017.6 |
| 20260501165515 | 66 | 270 | 0.0 | 0.0 | 0.00 | 0.00 | 0.00 | 55 | 1017.9 |
| 20260501165012 | 65 | 69 | 1.0 | 2.0 | 0.00 | 0.00 | 0.00 | 51 | 1018.0 |
| 20260501164509 | 64 | 356 | 0.0 | 4.0 | 0.00 | 0.00 | 0.00 | 53 | 1018.1 |
| 20260501164006 | 66 | 279 | 0.0 | 2.0 | 0.00 | 0.00 | 0.00 | 50 | 1018.2 |
| 20260501163502 | 68 | 78 | 0.0 | 2.0 | 0.00 | 0.00 | 0.00 | 48 | 1018.1 |
| 20260501162959 | 70 | 90 | 0.0 | 0.0 | 0.00 | 0.00 | 0.00 | 49 | 1018.4 |